COSMOS 2251 DEB

Satellite information

Favourite Embed

Satellite Type and Status

DEBRISIN ORBIT

Key statistics

Satellite COSMOS 2251 DEB at a glance.

Uptime

11709

Days in orbit

Revolutions

≈ 14.4

Per day

Orbit

LEO

Low Earth Orbit

Inclination

74.1

Latest

Satellite identification and parameters

Extended collection of information and parameters for COSMOS 2251 DEB.

Object identification

Identified? True

Debris? True

Object name: COSMOS 2251 DEB

International designator: 1993-036HH

Object number (NORAD): 34022

Object ID (CCSDS): 34022

Country: COMMONWEALTH OF INDEPENDENT STATES (CIS)

Current information (Y/N): Y

RCS size: SMALL

Orbital parameters

Period: 100.092 minutes

Inclination: 74.0521 deg

SMA: 7140.994 km

Apoapsis: 779.814 km

Periapsis: 745.903 km

RAAN: 204.0994 deg

Eccentricy: 0.0023744

Argument of periapsis: 310.3557 deg

Mean anomaly: 204.636 deg

Mean motion: 14.38681976 rev/day

Mean motion (dot): 0.00000367 rev/day2

B* drag term: 0.00012799 1/REarth

Two-line elements (TLE)

Creation date: July 6, 2025, 6:05 p.m.

Reference frame: TEME

Reference center: EARTH

Epoch: July 6, 2025, 12:27 p.m. UTC

TLE line 0: 0 COSMOS 2251 DEB

TLE line 1: 1 34022U 93036HH 25187.51902786 .00000367 00000-0 12799-3 0 9990

TLE line 2: 2 34022 74.0521 204.0994 0023744 310.3557 204.6360 14.38681976859055

Live tracking on map

Real-time ground track for satellite COSMOS 2251 DEB.

In-orbit conjunctions

A list of the most updated potential collisions computed for object COSMOS 2251 DEB.

Target Orbit TCA Probability of collision Miss distance Type
COSMOS 2251 DEB LEO 2025-05-24 01:47:43 0.0003105745 56.0 (m) DEBRIS
CZ-6A DEB SSO 2025-04-28 01:24:49 0.0003261303 35.0 (m) DEBRIS
CZ-6A DEB LEO 2025-01-18 16:05:21 0.000179169 778.0 (m) DEBRIS
SL-8 R/B LEO 2024-07-31 05:09:31 0.00109678 38.0 (m) ROCKET BODY

Associated space launch

Military communications satellite. Destroyed in a collision with Iridium 33.

COSMOS 2251 DEB was lifted into orbit during the mission ‘Kosmos-3M | Strela-2M 51’, on board a Kosmos-3M space rocket.

The launch took place on June 16, 1993, 4:17 a.m. from 132/1 (132L).

For more information about the launch, click the button.

Launch to space Kosmos-3M | Strela-2M 51
Kosmos-3M | Strela-2M 51

Agency: N/A

Status: Launch Successful

Launch date: June 16, 1993, 4:17 a.m. UTC

Rocket: Kosmos-3M

Launch pad: 132/1 (132L)

Location: Plesetsk Cosmodrome, Russian Federation

...

Latest news about this satellite

There are no fresh news available about this satellite. Check back as we update our databases every day.


Newsletter sign-up

Weekly statistics, charts and insights to help you stay on top of the space industry.